Location: Burbank
(38.7788°N, 114.0429°W)
Time: 02:30:33
(UTC+00:00)

Transit 2A Rocket - Pass Details

Date: 12 May 2026
Orbit: 589 x 893 km, 66.7° (Epoch: 9 June)

Event Time Altitude Azimuth Distance (km) Brightness Sun altitude
Rises 04:48:39 0° 258° (WSW) 3,401 8.8 -21.4°
Reaches altitude 10° 04:52:19 10° 281° (W) 2,414 8.3 -21.8°
Maximum altitude 04:55:25 15° 315° (NW) 2,034 8.2 -22.2°
Drops below altitude 10° 04:58:24 10° 349° (N) 2,308 8.3 -22.6°
Sets 05:01:48 0° 13° (NNE) 3,165 8.7 -23.0°
